Skip Page Navigation
NASA JPL Caltech
NASA Logo - Jet Propulsion Laboratory + View the NASA Portal
+ Near-Earth Object (NEO) Program
Search JPL
JPL Home Earth Solar System Stars & Galaxies Technology
JPL Solar System Dynamics
BODIES ORBITS EPHEMERIDES TOOLS PHYSICAL DATA DISCOVERY FAQ SITE MAP
JPL Small-Body Database Browser
Search: [ help ]  
10968 Sterken (4393 T-1)
Classification: Main-belt Asteroid          SPK-ID: 2010968
Ephemeris | Orbit Diagram | Orbital Elements | Physical Parameters | Discovery Circumstances | Close-Approach Data ]

[ show orbit diagram ]
Orbital Elements at Epoch 2456800.5 (2014-May-23.0) TDB
Reference: JPL 8 (heliocentric ecliptic J2000)
 Element Value Uncertainty (1-sigma)   Units 
e .1159868608348592 6.8131e-08  
a 3.12896368466296 3.5673e-08 AU
q 2.766045009212629 2.1394e-07 AU
i 2.437197476432936 6.332e-06 deg
node 100.1944317771154 0.00016985 deg
peri 103.243178043794 0.00017196 deg
M 290.8385637469424 2.9441e-05 deg
tp 2457188.883448581723
(2015-Jun-15.38344858)
0.00016833 JED
period 2021.618535766584
5.53
3.4573e-05
9.466e-08
d
yr
n .1780751381286136 3.0453e-09 deg/d
Q 3.491882360113291 3.9811e-08 AU
  Orbit Determination Parameters
   # obs. used (total)      715  
   data-arc span      15627 days (42.78 yr)  
   first obs. used      1971-03-24  
   last obs. used      2014-01-04  
   planetary ephem.      DE431  
   SB-pert. ephem.      SB431-BIG16  
   condition code      0  
   fit RMS      .5953  
   data source      ORB  
   producer      Otto Matic  
   solution date      2014-Jun-16 13:46:19  

Additional Information
 Earth MOID = 1.7642 AU 
 T_jup = 3.202 
[ show covariance matrix ]

Ephemeris | Orbit Diagram | Orbital Elements | Physical Parameters | Discovery Circumstances | Close-Approach Data ]

Physical Parameter Table
Parameter Symbol Value Units Sigma Reference Notes
absolute magnitude H 14.1 mag n/a MPO253441  

10968 Sterken           Discovered 1971 Mar. 26 by C. J. van Houten and I. van Houten-Groeneveld on Palomar Schmidt plates taken by T. Gehrels.
Christiaan Sterken (b. 1946), an astronomer at the Free University of Brussels, has a particular interest in \beta Sct, \delta Sct and S Dor stars. He established the working group on Long-Term Photometry of Variables at the European Southern Observatory and was co-founder of the Journal of Astronomical Data (1995).
NOTE: some special characters may not display properly (any characters within {} are an attempt to place the proper accent above a character)
Reference: 20060219/MPCPages.arcLast Updated: 2010-06-03

[ show close-approach data ]
Alternate Designations
 4393 T-1 = 3216 T-2 
Ephemeris | Orbit Diagram | Orbital Elements | Physical Parameters | Discovery Circumstances | Close-Approach Data ]
ABOUT SSD CREDITS/AWARDS PRIVACY/COPYRIGHT GLOSSARY LINKS
FirstGov 2014-Jul-29 00:33 UT
(server date/time)  
NASA Home Page
Site Manager:   Donald K. Yeomans
Webmaster  Alan B. Chamberlin